TimeMDT,TemperatureF,Dew PointF,Humidity,Sea Level PressureIn,VisibilityMPH,Wind Direction,Wind SpeedMPH,Gust SpeedMPH,PrecipitationIn,Events,Conditions,WindDirDegrees,DateUTC
12:56 AM,50.0,42.1,74,29.89,-9999.0,North,23.0,29.9,N/A,,Unknown,360,2013-09-28 06:56:00
1:56 AM,46.0,39.9,79,29.92,-9999.0,North,12.7,-,N/A,,Unknown,350,2013-09-28 07:56:00
2:56 AM,43.0,39.0,86,29.93,-9999.0,North,5.8,-,N/A,,Unknown,350,2013-09-28 08:56:00
3:56 AM,41.0,39.0,93,29.94,-9999.0,WNW,5.8,-,N/A,,Unknown,290,2013-09-28 09:56:00
4:56 AM,39.9,37.0,89,29.98,-9999.0,NW,5.8,-,N/A,,Unknown,310,2013-09-28 10:56:00
5:56 AM,39.0,37.0,93,30.02,-9999.0,WNW,4.6,-,N/A,,Unknown,290,2013-09-28 11:56:00
6:56 AM,39.0,36.0,89,30.05,-9999.0,WNW,8.1,-,N/A,,Unknown,290,2013-09-28 12:56:00
7:56 AM,46.0,39.9,79,30.05,-9999.0,WNW,6.9,-,N/A,,Unknown,300,2013-09-28 13:56:00
8:56 AM,53.1,37.9,57,30.06,-9999.0,NNW,6.9,-,N/A,,Unknown,340,2013-09-28 14:56:00
9:56 AM,57.9,34.0,41,30.09,-9999.0,NNW,8.1,-,N/A,,Unknown,330,2013-09-28 15:56:00
10:56 AM,60.1,32.0,35,30.10,-9999.0,NW,6.9,-,N/A,,Unknown,320,2013-09-28 16:56:00
11:56 AM,62.1,30.9,31,30.09,-9999.0,Variable,3.5,-,N/A,,Unknown,0,2013-09-28 17:56:00
12:56 PM,64.9,30.0,27,30.07,-9999.0,Variable,4.6,-,N/A,,Unknown,0,2013-09-28 18:56:00
1:56 PM,66.0,27.0,23,30.05,-9999.0,Calm,Calm,-,N/A,,Unknown,0,2013-09-28 19:56:00
2:56 PM,66.9,27.0,22,30.06,-9999.0,SSW,5.8,-,N/A,,Unknown,200,2013-09-28 20:56:00
3:56 PM,68.0,30.0,24,30.05,-9999.0,South,10.4,16.1,N/A,,Unknown,180,2013-09-28 21:56:00
4:56 PM,66.0,30.0,26,30.07,-9999.0,SSW,5.8,-,N/A,,Unknown,200,2013-09-28 22:56:00
5:56 PM,63.0,32.0,31,30.08,-9999.0,SSE,9.2,-,N/A,,Unknown,160,2013-09-28 23:56:00
6:56 PM,53.1,35.1,50,30.11,-9999.0,SSE,8.1,-,N/A,,Unknown,150,2013-09-29 00:56:00
7:56 PM,51.1,37.0,59,30.10,-9999.0,SSE,9.2,-,N/A,,Unknown,160,2013-09-29 01:56:00
8:56 PM,48.9,37.0,64,30.10,-9999.0,South,9.2,-,N/A,,Unknown,180,2013-09-29 02:56:00
9:56 PM,48.0,37.9,68,30.10,-9999.0,South,10.4,-,N/A,,Unknown,180,2013-09-29 03:56:00
10:56 PM,48.0,37.9,68,30.10,-9999.0,SSW,8.1,-,N/A,,Unknown,200,2013-09-29 04:56:00
11:56 PM,48.9,37.0,64,30.08,-9999.0,SSW,12.7,-,N/A,,Unknown,200,2013-09-29 05:56:00